Starlink 31550

operational
NORAD ID: 59338 Int'l Des: 2024-057 Owner: SPXS Country: US Constellation: starlink
LEOCIRCULAR

Starlink 31550について

説明を読み込み中...

リアルタイム位置

3D地球を読み込み中...

次回通過

高度履歴

Altitude vs Time

uPlot chart will show altitude changes over time

軌道要素

1 59338U 24057U 25259.23018181 .00000880 00000-0 41506-4 0 9999
2 59338 43.0004 92.6754 0001100 274.0285 86.0441 15.27569626 83153
Epoch: Sep 16, 2025 • Age: 15 hours

現在のステータス

高度 485.1 km
速度 7.62 km/s
衛星直下点 -12.22°S, 21.19°W
打ち上げ日 Mar 25, 2024
運用期間 1.4 years
タイプ internet

技術仕様

分類 Payload
質量 730.00 kg
乾燥質量 700.00 kg
総質量 730.00 kg
長さ 0.30 m
直径 4.10 m
スパン 29.00 m
形状 Box + pan
製造者 SPXS
バスタイプ Starlink V2M
フェーズステータス In Orbit
所有者/国 SPXS/US

大規模コンステレーション

Loading constellations...